ニート彗星

272P/NEAT (2013)

English version
Home page
Updated on September 11, 2013

---------------------------------------------------------------------

・ プロフィール

符号 272P/2012 V3
検出日 2012年11月12日
検出光度 20.9等
検出者 E. J. Christensen (Mount Lemmon)

・ 写真集

・ 軌道要素

Epoch 2013 Mar. 9.0 TT = JDT 2456360.5
T 2013 Feb. 27.17742 TT                                 MPC
q   2.4167020            (2000.0)            P               Q
n   0.10533761     Peri.   27.89146     -0.71420755     -0.63571277
a   4.4403147      Node   109.50302     +0.57036282     -0.77113105
e   0.4557363      Incl.   18.10165     +0.40570165     -0.03501680
P   9.36
From 70 observations 2003 Dec. 1-2012 Dec. 20, mean residual 0".5.

・ 光度変化

        m1 = 14.0 + 5 logΔ + 10.0 log r

---------------------------------------------------------------------

軌道要素はM.P.E.C. 2012-Y30に掲載されたものです。
光度グラフはComet for Windowsで作成したものです。

---------------------------------------------------------------------

Copyright(C) Seiichi Yoshida (comet@aerith.net). All rights reserved.